Deer Park, WA

9:15 AM PDT on July 27, 2017 (GMT -0700)
Deer Park

Weather History for KDEW - March, 2013

Change the Weather History Date:

Friday, March 15, 2013

  Actual Average Record
Temperature  
Mean Temperature 47 °F 38 °F  
Max Temperature 57 °F 49 °F 57 °F (2005)
Min Temperature 37 °F 27 °F 17 °F (2007)
Degree Days  
Heating Degree Days 18 27  
Month to date heating degree days 410 445  
Since 1 July heating degree days 5488 5810  
Cooling Degree Days 0 0  
Month to date cooling degree days 0 0  
Year to date cooling degree days 0 0  
Moisture  
Dew Point 37 °F    
Average Humidity 66    
Maximum Humidity 85    
Minimum Humidity 47    
Precipitation  
Precipitation 0.00 in 0.08 in 0.93 in (2015)
Month to date precipitation 0.37 0.85  
Year to date precipitation 2.80 5.08  
Sea Level Pressure  
Sea Level Pressure 30.10 in    
Wind  
Wind Speed 7 mph (South)    
Max Wind Speed 15 mph    
Max Gust Speed 17 mph    
Visibility 10 miles    
Events      
T = Trace of Precipitation, MM = Missing Value Source: NWS Daily Summary

Daily Weather History Graph

Daily Weather History Graph

Search for Another Location

Airport or City:

Trip Planner

Search our weather history database for the weather conditions in past years. The results will help you decide how hot, cold, wet, or windy it might be!

Date:

Astronomy

Mar. 15, 2013 Rise Set
Actual Time 7:02 AM PDT 6:55 PM PDT
Civil Twilight 6:31 AM PDT 7:26 PM PDT
Nautical Twilight 5:55 AM PDT 8:02 PM PDT
Astronomical Twilight 5:18 AM PDT 8:39 PM PDT
Moon 8:35 AM PDT (3/15) 11:36 PM PDT (3/15)
Length of Visible Light 12h 55m
Length of Day
11h 53m
Waxing Crescent, 16% of the Moon is Illuminated
Mar 15
Waxing Crescent
Mar 19
First Quarter
Mar 27
Full
Apr 2
Last Quarter
Apr 10
New

Hourly Weather History & Observations

Time (PDT) Temp. Windchill Dew Point Humidity Pressure Visibility Wind Dir Wind Speed Gust Speed Precip Events Conditions
12:53 AM 46.0 °F 41.0 °F 35.1 °F 66% 30.01 in 10.0 mi South 10.4 mph - N/A   Clear
1:53 AM 45.0 °F 39.3 °F 34.0 °F 65% 30.04 in 10.0 mi South 11.5 mph - N/A   Clear
2:53 AM 41.0 °F 35.2 °F 33.1 °F 73% 30.06 in 10.0 mi SSE 9.2 mph - N/A   Clear
3:53 AM 42.1 °F 36.1 °F 34.0 °F 73% 30.06 in 10.0 mi South 10.4 mph - N/A   Clear
4:53 AM 39.9 °F 34.5 °F 33.1 °F 77% 30.09 in 10.0 mi SSE 8.1 mph - N/A   Clear
5:53 AM 39.0 °F 32.3 °F 34.0 °F 82% 30.11 in 10.0 mi SSE 10.4 mph - N/A   Clear
6:53 AM 37.9 °F 31.5 °F 34.0 °F 86% 30.11 in 10.0 mi South 9.2 mph - N/A   Clear
7:53 AM 37.9 °F 35.5 °F 34.0 °F 86% 30.14 in 10.0 mi SSE 3.5 mph - N/A   Clear
8:53 AM 42.1 °F 36.1 °F 37.0 °F 82% 30.16 in 10.0 mi South 10.4 mph - N/A   Scattered Clouds
9:00 AM 42.8 °F 37.5 °F 37.4 °F 81% 30.13 in 10.0 mi South 9.2 mph - N/A   Mostly Cloudy
9:42 AM 44.6 °F 39.7 °F 39.2 °F 81% 30.14 in 10.0 mi SSE 9.2 mph - N/A   Overcast
9:53 AM 44.1 °F 39.0 °F 39.0 °F 82% 30.17 in 10.0 mi SSE 9.2 mph - N/A   Overcast
10:23 AM 46.4 °F 42.4 °F 39.2 °F 76% 30.15 in 10.0 mi South 8.1 mph - N/A   Mostly Cloudy
10:53 AM 46.9 °F - 39.9 °F 77% 30.17 in 10.0 mi SSW 8.1 mph - N/A   Mostly Cloudy
11:24 AM 48.2 °F - 39.2 °F 71% 30.15 in 10.0 mi South 9.2 mph - N/A   Scattered Clouds
11:36 AM 48.2 °F - 39.2 °F 71% 30.15 in 10.0 mi SSW 8.1 mph - N/A   Mostly Cloudy
11:53 AM 48.0 °F - 39.9 °F 74% 30.17 in 10.0 mi Calm Calm - N/A   Mostly Cloudy
12:53 PM 51.1 °F - 39.9 °F 66% 30.14 in 10.0 mi ESE 3.5 mph - N/A   Mostly Cloudy
1:22 PM 51.8 °F - 39.2 °F 62% 30.12 in 10.0 mi SSW 3.5 mph - N/A   Mostly Cloudy
1:53 PM 53.1 °F - 41.0 °F 64% 30.12 in 10.0 mi Variable 4.6 mph - N/A   Partly Cloudy
2:53 PM 55.9 °F - 39.0 °F 53% 30.09 in 10.0 mi South 4.6 mph - N/A   Partly Cloudy
3:53 PM 55.0 °F - 39.0 °F 55% 30.08 in 10.0 mi Calm Calm - N/A   Partly Cloudy
4:53 PM 55.9 °F - 35.1 °F 45% 30.07 in 10.0 mi WSW 11.5 mph - N/A   Mostly Cloudy
5:53 PM 54.0 °F - 35.1 °F 49% 30.07 in 10.0 mi SSW 10.4 mph - N/A   Overcast
6:53 PM 50.0 °F - 37.0 °F 61% 30.06 in 10.0 mi SSW 8.1 mph - N/A   Clear
7:53 PM 44.1 °F 40.8 °F 36.0 °F 73% 30.08 in 10.0 mi South 5.8 mph - N/A   Clear
8:53 PM 46.0 °F 41.4 °F 35.1 °F 66% 30.07 in 10.0 mi SW 9.2 mph - N/A   Clear
9:53 PM 46.0 °F 41.9 °F 34.0 °F 63% 30.06 in 10.0 mi South 8.1 mph - N/A   Clear
10:53 PM 46.0 °F 41.9 °F 34.0 °F 63% 30.06 in 10.0 mi South 8.1 mph - N/A   Clear
11:53 PM 39.9 °F 35.8 °F 34.0 °F 79% 30.06 in 10.0 mi SSE 5.8 mph - N/A   Partly Cloudy